EW5804 Weather Reports


time (UTC)temp
C
wind
direction
speed
KPH
gust
KPH
rain 1hr
cm
rain 24hr
cm
rain mn
cm
humidity
%
barometer
mb
20260505152935 25 244 8.0 22.5 0.00 0.00 0.00 50 1016.5
20260505152646 25 170 8.0 22.5 0.00 0.00 0.00 52 1016.5
20260505151924 25 228 9.7 22.5 0.00 0.00 0.00 51 1016.3
20260505151418 25 197 9.7 22.5 0.00 0.00 0.00 52 1016.4
20260505150912 25 203 8.0 24.1 0.00 0.00 0.00 52 1016.3
20260505150405 25 160 6.4 24.1 0.00 0.00 0.00 54 1016.2
20260505150127 24 217 8.0 20.9 0.00 0.00 0.00 53 1016.4
20260505140534 22 203 8.0 20.9 0.00 0.00 0.00 60 1016.5
20260505130253 20 203 6.4 19.3 0.00 0.00 0.00 66 1016.7
20260505124735 19 190 8.0 19.3 0.00 0.00 0.00 67 1016.4
20260505124452 18 259 6.4 19.3 0.00 0.00 0.00 68 1016.4
20260505123723 18 234 6.4 19.3 0.00 0.00 0.00 68 1016.2
20260505123449 18 211 6.4 19.3 0.00 0.00 0.00 69 1016.1
20260505122711 18 206 6.4 20.9 0.00 0.00 0.00 69 1016.2
20260505122205 18 222 6.4 20.9 0.00 0.00 0.00 69 1016.2
20260505121923 18 178 6.4 16.1 0.00 0.00 0.00 70 1016.2
20260505121416 17 244 6.4 17.7 0.00 0.00 0.00 70 1016.2
20260505120647 17 197 4.8 17.7 0.00 0.00 0.00 71 1016.3
20260505120141 17 209 4.8 14.5 0.00 0.00 0.00 71 1016.1
20260505115636 17 178 6.4 16.1 0.00 0.00 0.00 72 1016.1
20260505115612 17 163 6.4 16.1 0.00 0.00 0.00 72 1016.2
20260505114624 16 186 4.8 14.5 0.00 0.00 0.00 72 1016.1
20260505114117 16 199 6.4 17.7 0.00 0.00 0.00 73 1016.0
20260505113838 16 241 4.8 17.7 0.00 0.00 0.00 73 1015.9
20260505113105 16 191 4.8 14.5 0.00 0.00 0.00 74 1015.8
20260505112559 16 209 4.8 14.5 0.00 0.00 0.00 74 1015.8
20260505112053 15 205 4.8 11.3 0.00 0.00 0.00 75 1015.8
20260505111546 15 219 4.8 12.9 0.00 0.00 0.00 75 1015.8
20260505111041 15 328 6.4 14.5 0.00 0.00 0.00 75 1015.8
20260505110535 15 267 6.4 17.7 0.00 0.00 0.00 76 1015.7
20260505101941 14 222 3.2 8.0 0.00 0.00 0.00 77 1015.4
20260505101434 14 229 3.2 9.7 0.00 0.00 0.00 77 1015.5
20260505100929 14 239 3.2 9.7 0.00 0.00 0.00 77 1015.3
20260505100644 14 231 3.2 11.3 0.00 0.00 0.00 77 1015.3
20260505095917 14 224 4.8 11.3 0.00 0.00 0.00 77 1015.2
20260505095411 14 205 3.2 11.3 0.00 0.00 0.00 77 1015.2
20260505094906 14 231 3.2 16.1 0.00 0.00 0.00 77 1015.2
20260505094400 14 257 3.2 16.1 0.00 0.00 0.00 76 1015.1
20260505093853 14 197 3.2 11.3 0.00 0.00 0.00 77 1015.1
20260505093346 14 188 4.8 12.9 0.00 0.00 0.00 76 1015.0
20260505093327 14 202 3.2 12.9 0.00 0.00 0.00 76 1015.1
20260505092345 14 233 4.8 12.9 0.00 0.00 0.00 76 1014.9
20260505092102 14 238 3.2 17.7 0.00 0.00 0.00 76 1015.0
20260505091343 14 226 1.6 17.7 0.00 0.00 0.00 76 1015.0
20260505090841 15 203 3.2 12.9 0.00 0.00 0.00 76 1014.9
20260505090339 15 249 4.8 12.9 0.00 0.00 0.00 76 1014.9
20260505085838 15 197 3.2 12.9 0.00 0.00 0.00 75 1014.9
20260505085337 15 189 3.2 14.5 0.00 0.00 0.00 75 1015.0
20260505084837 15 227 4.8 14.5 0.00 0.00 0.00 75 1014.9
20260505084337 15 242 3.2 14.5 0.00 0.00 0.00 75 1015.0
20260505083833 15 230 4.8 14.5 0.00 0.00 0.00 75 1015.0
20260505083333 15 206 4.8 12.9 0.00 0.00 0.00 74 1014.9
20260505082834 15 302 4.8 12.9 0.00 0.00 0.00 74 1015.0
20260505082333 15 269 3.2 12.9 0.00 0.00 0.00 74 1015.0
20260505081834 15 211 3.2 8.0 0.00 0.00 0.00 74 1015.0
20260505081333 15 204 4.8 12.9 0.00 0.00 0.00 74 1014.9
20260505080828 15 281 4.8 12.9 0.00 0.00 0.00 74 1014.8
20260505080328 15 317 4.8 12.9 0.00 0.00 0.00 73 1014.9
20260505075828 15 235 3.2 11.3 0.00 0.00 0.00 73 1014.8
20260505075328 15 201 3.2 17.7 0.00 0.00 0.00 73 1014.7
20260505074828 16 249 4.8 17.7 0.00 0.00 0.00 73 1014.8
20260505074548 16 207 6.4 16.1 0.00 0.00 0.00 73 1014.8
20260505074055 16 236 4.8 16.1 0.00 0.00 0.00 73 1014.7
20260505073546 16 239 4.8 12.9 0.00 0.00 0.00 72 1014.8
20260505072827 16 195 4.8 11.3 0.00 0.00 0.00 72 1014.7
20260505072324 16 236 4.8 11.3 0.00 0.00 0.00 72 1014.7
20260505071824 16 169 4.8 12.9 0.00 0.00 0.00 72 1014.6
20260505071324 16 209 4.8 20.9 0.00 0.00 0.00 72 1014.7
20260505070823 16 219 6.4 20.9 0.00 0.00 0.00 72 1014.6
20260505070324 16 206 4.8 16.1 0.00 0.00 0.00 71 1014.5
20260505065823 16 175 4.8 14.5 0.00 0.00 0.00 71 1014.6
20260505065325 16 229 6.4 24.1 0.00 0.00 0.00 71 1014.5
20260505064823 16 317 6.4 24.1 0.00 0.00 0.00 71 1014.5
20260505064815 16 217 4.8 14.5 0.00 0.00 0.00 71 1014.5
20260505063824 16 247 4.8 14.5 0.00 0.00 0.00 70 1014.5
20260505063324 16 204 6.4 16.1 0.00 0.00 0.00 70 1014.5
20260505062823 16 277 6.4 16.1 0.00 0.00 0.00 70 1014.5
20260505062541 16 294 4.8 12.9 0.00 0.00 0.00 70 1014.6
20260505062049 16 207 6.4 14.5 0.00 0.00 0.00 70 1014.7
20260505061322 16 259 6.4 17.7 0.00 0.00 0.00 70 1014.6
20260505060821 16 213 6.4 17.7 0.00 0.00 0.00 70 1014.6
20260505060321 16 242 4.8 16.1 0.00 0.00 0.00 70 1014.6
20260505055821 17 126 4.8 16.1 0.00 0.00 0.00 70 1014.6
20260505055322 17 269 4.8 16.1 0.00 0.00 0.00 69 1014.7
20260505054821 17 201 4.8 17.7 0.00 0.00 0.00 69 1014.7
20260505054321 17 267 4.8 17.7 0.00 0.00 0.00 69 1014.7
20260505054036 17 236 6.4 16.1 0.00 0.00 0.00 69 1014.8
20260505053320 17 181 8.0 19.3 0.00 0.00 0.00 69 1014.8
20260505053039 17 184 6.4 19.3 0.00 0.00 0.00 68 1014.7
20260505052308 17 224 6.4 16.1 0.00 0.00 0.00 69 1014.7
20260505052021 17 217 6.4 16.1 0.00 0.00 0.00 69 1014.7
20260505051254 17 209 8.0 24.1 0.00 0.00 0.00 69 1014.7
20260505050748 17 239 6.4 24.1 0.00 0.00 0.00 68 1014.8
20260505050244 17 174 4.8 17.7 0.00 0.00 0.00 68 1014.9
20260505041648 18 203 8.0 22.5 0.00 0.00 0.00 67 1014.7
20260505041143 18 193 8.0 33.8 0.00 0.00 0.00 67 1014.6
20260505040637 18 205 8.0 33.8 0.00 0.00 0.00 67 1014.7
20260505040130 18 198 8.0 20.9 0.00 0.00 0.00 67 1014.6
20260505035626 18 141 8.0 20.9 0.00 0.00 0.00 67 1014.5
20260505035348 18 316 6.4 19.3 0.00 0.00 0.00 67 1014.5
20260505034614 18 240 6.4 19.3 0.00 0.00 0.00 67 1014.6
20260505034113 18 16 8.0 19.3 0.00 0.00 0.00 67 1014.5
20260505033614 18 236 8.0 24.1 0.00 0.00 0.00 67 1014.5
20260505033112 18 143 8.0 24.1 0.00 0.00 0.00 67 1014.5
20260505032611 18 153 8.0 17.7 0.00 0.00 0.00 68 1014.5
20260505032112 18 233 6.4 19.3 0.00 0.00 0.00 67 1014.5
20260505031612 18 242 6.4 19.3 0.00 0.00 0.00 67 1014.5
20260505031112 18 345 6.4 17.7 0.00 0.00 0.00 67 1014.4
20260505030612 18 182 8.0 20.9 0.00 0.00 0.00 67 1014.6
20260505030557 18 276 8.0 20.9 0.00 0.00 0.00 68 1014.4
20260505025609 18 240 6.4 20.9 0.00 0.00 0.00 68 1014.4
20260505025106 18 274 8.0 20.9 0.00 0.00 0.00 69 1014.4
20260505024606 18 206 6.4 19.3 0.00 0.00 0.00 68 1014.4
20260505024106 18 216 4.8 16.1 0.00 0.00 0.00 68 1014.3
20260505023606 18 138 4.8 17.7 0.00 0.00 0.00 68 1014.2
20260505023103 18 186 4.8 17.7 0.00 0.00 0.00 68 1014.2
20260505022603 18 164 3.2 14.5 0.00 0.00 0.00 68 1014.2
20260505022323 18 168 4.8 16.1 0.00 0.00 0.00 67 1014.2
20260505021602 18 201 6.4 16.1 0.00 0.00 0.00 66 1014.2
20260505021236 18 199 6.4 14.5 0.00 0.00 0.00 66 1014.1
20260505020516 18 185 4.8 14.5 0.00 0.00 0.00 66 1014.0
20260505020017 18 180 3.2 14.5 0.00 0.00 0.00 65 1014.0
20260505015516 18 245 3.2 12.9 0.00 0.00 0.00 66 1014.0
20260505015016 17 197 3.2 12.9 0.00 0.00 0.00 65 1013.9
20260505014508 17 30 3.2 9.7 0.00 0.00 0.00 65 1013.8
20260505014002 17 51 3.2 9.7 0.00 0.00 0.00 65 1013.9
20260505013455 17 73 1.6 8.0 0.00 0.00 0.00 64 1013.7
20260505013216 17 93 1.6 8.0 0.00 0.00 0.00 66 1013.8
20260505012443 17 221 0.0 1.6 0.00 0.00 0.00 66 1013.7
20260505011937 17 222 0.0 3.2 0.00 0.00 0.00 64 1013.7
20260505011435 17 222 0.0 3.2 0.00 0.00 0.00 63 1013.7
20260505011149 17 222 0.0 1.6 0.00 0.00 0.00 62 1013.6
20260505010421 18 221 0.0 1.6 0.00 0.00 0.00 61 1013.5
20260505005912 18 221 0.0 1.6 0.00 0.00 0.00 62 1013.4
20260505005406 18 222 0.0 1.6 0.00 0.00 0.00 61 1013.3
20260505004900 18 221 0.0 3.2 0.00 0.00 0.00 59 1013.3
20260505004356 19 221 0.0 3.2 0.00 0.00 0.00 59 1013.3
20260505003850 19 221 0.0 1.6 0.00 0.00 0.00 58 1013.3
20260505003343 20 221 0.0 3.2 0.00 0.00 0.00 57 1013.2
20260505002837 20 221 0.0 3.2 0.00 0.00 0.00 55 1013.2
20260505002331 20 221 0.0 6.4 0.00 0.00 0.00 55 1013.0
20260505001825 20 221 0.0 6.4 0.00 0.00 0.00 55 1012.9
20260505001319 21 232 1.6 4.8 0.00 0.00 0.00 55 1012.9
20260505000813 21 232 1.6 6.4 0.00 0.00 0.00 49 1012.8
20260505000310 21 237 1.6 8.0 0.00 0.00 0.00 49 1012.9
20260504235802 22 192 1.6 8.0 0.00 0.00 0.00 47 1013.0
20260504235255 22 236 3.2 8.0 0.00 0.00 0.00 46 1012.8
20260504234749 22 237 3.2 9.7 0.00 0.00 0.00 45 1012.7
20260504234242 22 201 3.2 9.7 0.00 0.00 0.00 45 1012.8
20260504233737 23 221 3.2 8.0 0.00 0.00 0.00 44 1012.7
20260504233231 23 228 3.2 8.0 0.00 0.00 0.00 43 1012.8
20260504232725 23 186 3.2 8.0 0.00 0.00 0.00 42 1012.6
20260504232219 23 222 4.8 17.7 0.00 0.00 0.00 41 1012.6
20260504231713 23 205 3.2 17.7 0.00 0.00 0.00 41 1012.7
20260504231206 24 228 3.2 16.1 0.00 0.00 0.00 40 1012.6
20260504230701 24 191 4.8 16.1 0.00 0.00 0.00 39 1012.6
20260504230358 25 278 4.8 12.9 0.00 0.00 0.00 40 1012.5
20260504230245 24 251 4.8 12.9 0.00 0.00 0.00 40 1012.6
20260504225142 25 195 3.2 11.3 0.00 0.00 0.00 41 1012.6
20260504224636 25 248 4.8 12.9 0.00 0.00 0.00 40 1012.6
20260504224131 25 265 4.8 17.7 0.00 0.00 0.00 39 1012.6
20260504223625 25 277 4.8 17.7 0.00 0.00 0.00 39 1012.6
20260504223119 25 193 4.8 17.7 0.00 0.00 0.00 42 1012.6
20260504222614 25 345 4.8 17.7 0.00 0.00 0.00 42 1012.5
20260504222108 25 220 6.4 16.1 0.00 0.00 0.00 39 1012.4
20260504221601 25 186 6.4 16.1 0.00 0.00 0.00 37 1012.4
20260504221055 25 204 6.4 16.1 0.00 0.00 0.00 36 1012.6
20260504220549 26 158 6.4 16.1 0.00 0.00 0.00 37 1012.5
20260504220056 26 338 6.4 20.9 0.00 0.00 0.00 37 1012.5
20260504215536 26 193 8.0 29.0 0.00 0.00 0.00 38 1012.5
20260504215031 26 185 8.0 29.0 0.00 0.00 0.00 36 1012.5
20260504214525 26 265 8.0 16.1 0.00 0.00 0.00 37 1012.4
20260504214240 26 249 6.4 14.5 0.00 0.00 0.00 37 1012.5
20260504213512 26 268 6.4 24.1 0.00 0.00 0.00 37 1012.5
20260504213007 26 265 8.0 24.1 0.00 0.00 0.00 37 1012.4
20260504212501 26 231 8.0 19.3 0.00 0.00 0.00 36 1012.5
20260504211955 26 312 8.0 17.7 0.00 0.00 0.00 37 1012.5
20260504211709 26 255 6.4 17.7 0.00 0.00 0.00 37 1012.5
20260504210944 26 182 6.4 16.1 0.00 0.00 0.00 36 1012.6
20260504210437 26 156 8.0 25.7 0.00 0.00 0.00 38 1012.6
20260504210154 26 272 8.0 25.7 0.00 0.00 0.00 37 1012.6
20260504205424 26 240 8.0 20.9 0.00 0.00 0.00 36 1012.6
20260504204919 26 309 6.4 19.3 0.00 0.00 0.00 36 1012.6
20260504204413 26 179 6.4 17.7 0.00 0.00 0.00 36 1012.6
20260504203908 26 226 6.4 19.3 0.00 0.00 0.00 39 1012.6
20260504203602 26 168 8.0 22.5 0.00 0.00 0.00 37 1012.7
20260504203448 26 201 6.4 22.5 0.00 0.00 0.00 39 1012.5
20260504202349 26 185 8.0 25.7 0.00 0.00 0.00 37 1012.7
20260504201844 26 221 8.0 25.7 0.00 0.00 0.00 36 1012.6
20260504201337 26 261 8.0 20.9 0.00 0.00 0.00 36 1012.6
20260504200831 26 284 8.0 22.5 0.00 0.00 0.00 36 1012.8
20260504200550 26 244 8.0 22.5 0.00 0.00 0.00 37 1012.9
20260504195832 26 247 6.4 19.3 0.00 0.00 0.00 36 1012.9
20260504195556 26 268 4.8 14.5 0.00 0.00 0.00 38 1012.8
20260504194831 26 254 6.4 16.1 0.00 0.00 0.00 37 1012.8
20260504194332 26 122 8.0 22.5 0.00 0.00 0.00 38 1012.8
20260504193831 26 164 8.0 22.5 0.00 0.00 0.00 39 1013.0
20260504193331 26 199 6.4 19.3 0.00 0.00 0.00 38 1013.1
20260504192830 26 68 8.0 16.1 0.00 0.00 0.00 35 1013.1
20260504192330 26 155 9.7 20.9 0.00 0.00 0.00 38 1013.3
20260504191831 26 168 9.7 20.9 0.00 0.00 0.00 40 1013.3
20260504191330 26 198 8.0 19.3 0.00 0.00 0.00 39 1013.3
20260504190830 25 263 6.4 22.5 0.00 0.00 0.00 39 1013.3
20260504190547 25 207 8.0 22.5 0.00 0.00 0.00 41 1013.4
20260504185829 25 318 8.0 17.7 0.00 0.00 0.00 38 1013.4
20260504185329 25 157 9.7 17.7 0.00 0.00 0.00 39 1013.5
20260504184830 25 187 8.0 29.0 0.00 0.00 0.00 43 1013.7
20260504184545 25 172 8.0 29.0 0.00 0.00 0.00 39 1013.5
20260504184038 25 286 9.7 24.1 0.00 0.00 0.00 41 1013.7
20260504183311 25 279 6.4 24.1 0.00 0.00 0.00 41 1013.9
20260504182811 25 230 6.4 16.1 0.00 0.00 0.00 42 1014.0
20260504182536 25 261 8.0 20.9 0.00 0.00 0.00 41 1014.2
20260504181811 25 261 9.7 24.1 0.00 0.00 0.00 42 1014.3
20260504181310 25 312 9.7 24.1 0.00 0.00 0.00 43 1014.2
20260504180811 25 236 8.0 19.3 0.00 0.00 0.00 44 1014.3
20260504180538 24 236 8.0 20.9 0.00 0.00 0.00 44 1014.4
20260504175811 24 231 9.7 25.7 0.00 0.00 0.00 41 1014.3
20260504175311 23 206 9.7 25.7 0.00 0.00 0.00 43 1014.4
20260504174811 24 283 6.4 19.3 0.00 0.00 0.00 42 1014.3
20260504174530 24 234 8.0 24.1 0.00 0.00 0.00 44 1014.5
20260504173807 23 289 8.0 24.1 0.00 0.00 0.00 47 1014.5
20260504173528 23 272 8.0 19.3 0.00 0.00 0.00 43 1014.6
20260504172807 23 170 9.7 25.7 0.00 0.00 0.00 43 1014.7
20260504172307 23 164 8.0 25.7 0.00 0.00 0.00 44 1014.8
20260504171807 24 322 8.0 20.9 0.00 0.00 0.00 42 1014.8
20260504171755 24 195 8.0 19.3 0.00 0.00 0.00 43 1014.9
20260504170808 24 217 8.0 19.3 0.00 0.00 0.00 45 1014.8
20260504170307 24 227 6.4 19.3 0.00 0.00 0.00 48 1014.7
20260504160256 23 278 9.7 22.5 0.00 0.00 0.00 46 1015.6